[Iaude] MPEC G173: 2024 GH4 [a=1.65,e=0.26,i=13.0,H=22.1]

mpec at cfa.harvard.edu mpec at cfa.harvard.edu
Fri Apr 12 09:38:10 EDT 2024


M.P.E.C. 2024-G173                               Issued 2024 April 12, 13:36 UT

     The Minor Planet Electronic Circulars contain information on unusual
         minor planets, routine data on comets and natural satellites,
         and occasional editorial announcements.  They are published
    on behalf of Division F of the International Astronomical Union by the
          Minor Planet Center, Smithsonian Astrophysical Observatory,
                          Cambridge, MA 02138, U.S.A.
			  
             Prepared using the Tamkin Foundation Computer Network

                              MPC at CFA.HARVARD.EDU
            URL https://www.minorplanetcenter.net/    ISSN 1523-6714

                                    2024 GH4                                    


Observations:
     K24G04H*1C2024 04 10.42954615 54 56.549+13 21 08.86         21.61GVEG173G96
     K24G04H 1C2024 04 10.43479015 54 56.358+13 21 01.37         21.39GVEG173G96
     K24G04H 1C2024 04 10.44003215 54 56.156+13 20 54.56         20.97GVEG173G96
     K24G04H 1C2024 04 10.44525615 54 55.933+13 20 46.72         20.92GVEG173G96
     K24G04H KC2024 04 10.48062115 54 54.518+13 19 57.22         21.56GVEG173V06
     K24G04H KC2024 04 10.48172215 54 54.493+13 19 55.92               VEG173V06
     K24G04H KC2024 04 10.48282215 54 54.450+13 19 54.41               VEG173V06
     K24G04H KC2024 04 10.48392415 54 54.392+13 19 52.79               VEG173V06
     K24G04H 1C2024 04 11.07147 15 54 36.35 +13 05 53.6          21.4 VXEG173033
     K24G04H 1C2024 04 11.07431 15 54 36.21 +13 05 49.3          21.2 VXEG173033
     K24G04H 1C2024 04 11.07715 15 54 36.10 +13 05 45.1          21.0 VXEG173033
     K24G04H KC2024 04 11.32295515 54 28.757+12 59 59.14         21.37GVEG173I52
     K24G04H KC2024 04 11.32542215 54 28.670+12 59 55.75         21.88GVEG173I52
     K24G04H KC2024 04 11.32932915 54 28.530+12 59 50.24         21.37GVEG173I52
     K24G04H KC2024 04 11.33133515 54 28.408+12 59 47.69         21.19GVEG173I52
     K24G04H 1C2024 04 11.43481715 54 23.861+12 57 19.40               VEG173G96
     K24G04H 1C2024 04 11.43994615 54 23.569+12 57 11.30         21.05GVEG173G96
     K24G04H 1C2024 04 11.44509115 54 23.382+12 57 03.89         21.41GVEG173G96
     K24G04H 1C2024 04 11.45023415 54 23.170+12 56 56.11         21.18GVEG173G96
     K24G04H KB2024 04 12.01164 15 54 03.97 +12 43 11.5          21.2 GVEG173204
     K24G04H KB2024 04 12.04358 15 54 02.55 +12 42 24.4                VEG173204
     K24G04H 1C2024 04 12.09142 15 54 00.27 +12 41 12.1          21.0 VXEG173033
     K24G04H 1C2024 04 12.09426 15 54 00.17 +12 41 08.5          21.9 VXEG173033
     K24G04H 1C2024 04 12.09709 15 54 00.03 +12 41 04.0          21.4 VXEG173033
     K24G04H 1C2024 04 12.09991 15 53 59.90 +12 40 59.6          21.4 VXEG173033
     K24G04H KC2024 04 12.31705015 53 52.66 +12 35 43.8          21.5 GXEG173858
     K24G04H KC2024 04 12.33766215 53 51.73 +12 35 13.6          21.1 GXEG173858

Observer details:
033 Karl Schwarzschild Observatory, Tautenburg.  Observers S. Melnikov, C.
    Hogner, F. Ludwig, M. Hartmann, B. Stecklum.  Measurer B. Stecklum.
    1.34-m f/3 Schmidt + CCD.
204 Schiaparelli Observatory.  Observer L. Buzzi.  0.84-m f/3.5 reflector +
    CMO.
858 Tebbutt Observatory, Edgewood.  Observer F. B. Zoltowski.  0.51-m f/8.1
    Schmidt-Cassegrain + CCD.
G96 Mt. Lemmon Survey.  Observers A. D. Grauer, H. Groeller.  Measurers T.
    Beuden, V. F. Carvajal, D. Fay, J. B. Fazekas, D. C. Fuls, A. R. Gibbs, A.
    D. Grauer, H. Groeller, J. K. Hogan, R. A. Kowalski, S. M. Larson, G. J.
    Leonard, D. Rankin, R. L. Seaman, F. C. Shelly, K. W. Wierzchos.  1.5-m
    reflector + 10K CCD.
I52 Steward Observatory, Mt. Lemmon Station.  Observers V. F. Carvajal, G. J.
    Leonard.  Measurers T. Beuden, V. F. Carvajal, D. Fay, J. B. Fazekas, D.
    C. Fuls, A. R. Gibbs, A. D. Grauer, H. Groeller, J. K. Hogan, R. A.
    Kowalski, S. M. Larson, G. J. Leonard, D. Rankin, R. L. Seaman, F. C.
    Shelly, K. W. Wierzchos.  1.0-m prime focus + CCD.
V06 Catalina Sky Survey-Kuiper.  Observer G. J. Leonard.  Measurers T. Beuden,
    V. F. Carvajal, D. Fay, J. B. Fazekas, D. C. Fuls, A. R. Gibbs, A. D.
    Grauer, H. Groeller, J. K. Hogan, R. A. Kowalski, S. M. Larson, G. J.
    Leonard, D. Rankin, R. L. Seaman, F. C. Shelly, K. W. Wierzchos.  1.55-m
    reflector + 1K CCD.

Orbital elements:
2024 GH4                                                 Earth MOID = 0.2870 AU
Epoch 2024 Mar. 31.0 TT = JDT 2460400.5                 Veres                   
M  11.28695              (2000.0)            P               Q                  
n   0.46631998     Peri.  114.17567     -0.97854708     -0.03639422             
a   1.6469486      Node    64.28136     -0.06629509     -0.87629892             
e   0.2618626      Incl.   13.00762     +0.19506555     -0.48039116             
P   2.11           H   22.15          G   0.15           U   9                  
Residuals in seconds of arc
240410 G96  0.3-  0.1-    240411 033  0.6-  0.2+    240411 G96  0.2+  0.4-
240410 G96  0.0   0.3-    240411 033  0.5-  0.0     240412 204  0.1+  0.2+
240410 G96  0.2+  0.3+    240411 I52  0.2-  0.2-    240412 204  0.3+  0.2-
240410 G96  0.0   0.2-    240411 I52  0.0   0.1-    240412 033  0.3-  0.0
240410 V06  0.1+  0.2+    240411 I52  0.4+  0.1-    240412 033  0.1+  0.6+
240410 V06  0.4+  0.4+    240411 I52  0.1-  0.2+    240412 033  0.2-  0.3+
240410 V06  0.4+  0.5+    240411 G96  0.3+  0.6+    240412 033  0.2-  0.0
240410 V06  0.2+  0.4+    240411 G96  0.7-  0.1-    240412 858  0.5-  0.3-
240411 033  0.2-  0.4+    240411 G96  0.0   0.1-    240412 858  0.1+  0.1-

Ephemeris:
2024 GH4                 a,e,i = 1.65, 0.26, 13                  q = 1.2157
Date    TT    R. A. (2000) Decl.     Delta      r    Elong.  Phase     V
2024 03 13    15 40 40.3 +20 25 15   0.3814  1.2167   117.2    46.6    22.2
...
2024 03 28    15 55 10.4 +17 33 46   0.3437  1.2273   124.9    41.9    21.9
...
2024 04 05    15 56 37.5 +15 17 21   0.3261  1.2376   130.6    37.9    21.7
...
2024 04 11    15 54 38.7 +13 07 53   0.3150  1.2472   135.7    34.1    21.5
2024 04 12    15 54 03.9 +12 43 45   0.3134  1.2490   136.7    33.4    21.5
2024 04 13    15 53 24.9 +12 18 51   0.3118  1.2508   137.6    32.7    21.5
...
2024 04 19    15 48 09.0 +09 33 17   0.3043  1.2625   143.7    28.1    21.3
...
2024 04 27    15 38 02.5 +05 11 34   0.3001  1.2803   152.6    21.2    21.1
...
2024 05 12    15 14 26.3 -04 16 20   0.3165  1.3197   166.1    10.6    20.9

M. P. C. Staff               (C) Copyright 2024 MPC           M.P.E.C. 2024-G173





More information about the Iaude mailing list